1485723601.08,52608,12.56,73772.8,-6.17,-37.81,-37.81,0,*59
1485723602.35,52609,12.56,73776.3,-6.17,-37.99,-37.99,0,*58
1485723603.58,52610,12.56,73776.8,-6.17,-37.63,-37.57,0,*57
1485723604.85,52611,12.56,73774.3,-6.13,-37.51,-37.51,0,*55
1485723606.11,52612,12.56,73776.8,-6.19,-37.69,-37.87,0,*5C
1485723607.35,52613,12.56,73774.0,-6.17,-37.57,-37.63,0,*54
1485723608.58,52614,12.56,73776.0,-6.17,-37.39,-37.57,0,*5C
1485723609.82,52615,12.56,73778.3,-6.17,-37.27,-37.39,0,*5A
1485723611.06,52616,12.56,73776.5,-6.17,-37.27,-37.39,0,*59
1485723612.28,52617,12.56,73776.0,-6.17,-37.39,-37.45,0,*5C
1485723613.55,52618,12.56,73776.5,-6.17,-37.63,-37.63,0,*58
1485723614.76,52619,12.56,73776.3,-6.17,-37.57,-37.75,0,*59
1485723615.99,52620,12.56,73772.3,-6.17,-37.75,-37.81,0,*58
1485723617.28,52621,12.56,73776.3,-6.19,-37.63,-37.63,0,*5C
1485723618.55,52622,12.56,73774.3,-6.19,-37.45,-37.63,0,*5B
1485723619.78,52623,12.56,73772.0,-6.17,-37.39,-37.57,0,*58
1485723620.99,52624,12.56,73774.0,-6.17,-37.57,-37.75,0,*57
1485723622.23,52625,12.56,73776.3,-6.17,-37.63,-37.75,0,*51
1485723623.5,52626,12.56,73772.0,-6.17,-37.81,-37.99,0,*5C
1485723624.76,52627,12.56,73776.5,-6.19,-37.99,-37.87,0,*55
1485723626.02,52628,12.56,73776.8,-6.17,-37.93,-37.93,0,*5B
1485723627.26,52629,12.56,73772.8,-6.17,-37.39,-37.57,0,*52
1485723628.49,52630,12.56,73776.0,-6.17,-37.33,-37.63,0,*57
1485723629.73,52631,12.56,73772.0,-6.17,-37.39,-37.57,0,*5B
1485723630.93,52632,12.56,73772.8,-6.17,-37.45,-37.57,0,*53
1485723632.17,52633,12.56,73772.5,-6.17,-37.57,-37.63,0,*56
1485723633.43,52634,12.56,73772.8,-6.17,-37.93,-37.93,0,*56
1485723634.69,52635,12.56,73774.0,-6.17,-37.99,-38.11,0,*58
1485723635.95,52636,12.56,73772.0,-6.17,-37.81,-37.99,0,*5D
1485723637.16,52637,12.56,73772.5,-6.17,-37.27,-37.57,0,*52
1485723638.43,52638,12.56,73774.3,-6.17,-37.63,-37.63,0,*5A
1485723639.66,52639,12.56,73772.5,-6.17,-37.63,-37.75,0,*5C
1485723640.87,52640,12.56,73774.5,-6.17,-37.45,-37.57,0,*56
1485723642.1,52641,12.56,73772.0,-6.17,-37.63,-37.75,0,*53
1485723643.34,52642,12.56,73774.0,-6.17,-37.63,-37.75,0,*50
1485723644.57,52643,12.56,73772.5,-6.17,-37.39,-37.57,0,*5E
1485723645.86,52644,12.56,73776.3,-6.19,-37.63,-37.81,0,*53
1485723647.07,52645,12.56,73774.5,-6.17,-37.45,-37.57,0,*53
1485723648.36,52646,12.63,73780.0,-6.19,-37.63,-37.63,0,*5D
1485723649.6,52647,12.56,73772.0,-6.17,-37.45,-37.63,0,*56
1485723650.89,52648,12.56,73778.0,-6.19,-37.51,-37.69,0,*58
1485723652.15,52649,12.56,73776.8,-6.17,-37.81,-37.81,0,*5C
1485723653.42,52650,12.56,73774.8,-6.17,-37.99,-38.29,0,*50
1485723654.67,52651,12.56,73774.5,-6.17,-37.99,-38.11,0,*5A
1485723655.96,52652,12.56,73776.5,-6.19,-37.51,-37.81,0,*55
1485723657.24,52653,12.56,73774.5,-6.19,-37.87,-37.99,0,*56
1485723658.47,52654,12.56,73772.8,-6.17,-37.75,-37.93,0,*58
1485723659.67,52655,12.56,73778.0,-6.17,-37.45,-37.57,0,*52
1485723660.95,52656,12.56,73776.0,-6.19,-37.81,-37.87,0,*5A
1485723662.21,52657,12.56,73774.3,-6.17,-37.63,-37.81,0,*5F
1485723663.5,52658,12.56,73774.3,-6.19,-37.69,-37.81,0,*54
1485723664.79,52659,12.56,73776.8,-6.19,-37.63,-37.69,0,*59
1485723666.07,52660,12.56,73776.0,-6.19,-37.51,-37.69,0,*52
1485723667.3,52661,12.56,73776.3,-6.19,-38.05,-38.05,0,*58
1485723668.54,52662,12.56,73772.8,-6.19,-38.05,-38.05,0,*5B
1485723669.8,52663,12.56,73774.8,-6.19,-37.99,-38.17,0,*53
1485723671.03,52664,12.56,73776.8,-6.19,-38.05,-38.05,0,*5D
1485723672.29,52665,12.56,73778.3,-6.17,-37.81,-37.93,0,*51
1485723673.56,52666,12.56,73780.3,-6.23,-37.93,-37.87,0,*53
1485723674.82,52667,12.56,73774.5,-6.21,-37.51,-37.51,0,*55
1485723676.05,52668,12.56,73776.8,-6.21,-37.45,-37.51,0,*5F
1485723677.34,52669,12.56,73772.0,-6.19,-37.63,-37.69,0,*5A
1485723678.64,52670,12.56,73772.5,-6.19,-37.81,-37.81,0,*58
1485723679.91,52671,12.56,73778.3,-6.19,-37.81,-37.87,0,*5F
1485723681.2,52672,12.56,73774.5,-6.19,-37.51,-37.63,0,*5B
1485723682.49,52673,12.56,73778.5,-6.19,-37.63,-37.69,0,*51
1485723683.72,52674,12.56,73778.3,-6.21,-37.33,-37.51,0,*53
1485723684.99,52675,12.56,73776.3,-6.19,-37.33,-37.51,0,*59
1485723686.22,52676,12.56,73776.3,-6.19,-37.27,-37.45,0,*5A
1485723687.49,52677,12.56,73776.0,-6.19,-37.45,-37.63,0,*5B
1485723688.72,52678,12.56,73776.8,-6.17,-37.75,-37.93,0,*56
1485723689.95,52679,12.56,73772.5,-6.17,-37.63,-37.75,0,*58
1485723691.19,52680,12.56,73774.8,-6.17,-37.21,-37.45,0,*5B
1485723692.42,52681,12.56,73778.0,-6.17,-37.33,-37.63,0,*5D
1485723693.68,52682,12.56,73774.8,-6.17,-37.63,-37.81,0,*57
1485723694.98,52683,12.56,73774.0,-6.19,-37.69,-37.81,0,*52
1485723696.21,52684,12.56,73776.8,-6.19,-37.87,-38.05,0,*56
1485723697.45,52685,12.56,73776.0,-6.19,-37.27,-37.45,0,*56
1485723698.68,52686,12.56,73774.3,-6.19,-37.27,-37.33,0,*54
1485723699.95,52687,12.56,73778.3,-6.19,-37.27,-37.51,0,*51
1485723701.22,52688,12.56,73772.3,-6.19,-37.87,-37.99,0,*50
1485723702.48,52689,12.56,73772.0,-6.21,-37.99,-37.99,0,*55
1485723703.76,52690,12.56,73772.8,-6.19,-37.81,-37.87,0,*50
1485723705.01,52691,12.56,73778.0,-6.17,-37.51,-37.69,0,*52
1485723706.22,52692,12.56,73778.0,-6.17,-37.57,-37.75,0,*5A
1485723707.46,52693,12.56,73776.0,-6.17,-37.57,-37.63,0,*5C
1485723708.72,52694,12.56,73776.8,-6.19,-37.33,-37.63,0,*57
1485723709.99,52695,12.56,73776.5,-6.19,-37.45,-37.51,0,*56
1485723711.28,52696,12.56,73778.3,-6.19,-37.51,-37.63,0,*51
1485723712.57,52697,12.56,73778.8,-6.19,-37.99,-37.99,0,*51
1485723713.83,52698,12.56,73774.0,-6.17,-37.93,-37.93,0,*50
1485723715.06,52699,12.56,73772.5,-6.17,-38.11,-38.17,0,*57
1485723716.33,52700,12.56,73774.8,-6.19,-38.05,-38.23,0,*5A
1485723717.59,52701,12.56,73776.0,-6.19,-38.05,-37.99,0,*55
1485723718.85,52702,12.56,73778.3,-6.21,-37.69,-37.81,0,*51
1485723720.06,52703,12.56,73776.0,-6.21,-37.33,-37.45,0,*57
1485723721.35,52704,12.56,73780.0,-6.19,-37.51,-37.51,0,*5A
1485723722.63,52705,12.56,73778.0,-6.19,-37.51,-37.69,0,*50
1485723723.87,52706,12.56,73780.5,-6.21,-37.81,-37.87,0,*55
1485723725.12,52707,12.56,73774.5,-6.21,-37.81,-37.87,0,*54
1485723726.37,52708,12.56,73776.0,-6.21,-37.51,-37.69,0,*56
1485723727.66,52709,12.56,73774.8,-6.23,-37.93,-37.93,0,*5E
1485723728.9,52710,12.56,73774.8,-6.21,-37.81,-37.87,0,*52
1485723730.16,52711,12.56,73774.3,-6.21,-37.69,-37.69,0,*55
1485723731.39,52712,12.56,73772.5,-6.21,-37.81,-38.05,0,*55
1485723732.64,52713,12.56,73776.0,-6.21,-37.87,-37.99,0,*58
1485723733.92,52714,12.56,73776.8,-6.23,-37.93,-37.93,0,*52
1485723735.17,52715,12.56,73782.3,-6.21,-37.63,-37.69,0,*5B
1485723736.44,52716,12.56,73778.5,-6.21,-37.69,-37.81,0,*54
1485723737.67,52717,12.56,73772.3,-6.21,-37.69,-37.87,0,*53
1485723738.89,52718,12.56,73776.3,-6.21,-37.87,-37.87,0,*5C
1485723740.1,52719,12.56,73776.0,-6.21,-37.75,-37.87,0,*50
1485723741.34,52720,12.56,73778.0,-6.21,-37.69,-37.87,0,*57
1485723742.58,52721,12.56,73776.5,-6.21,-37.45,-37.63,0,*52
1485723743.82,52722,12.56,73778.8,-6.21,-37.81,-37.87,0,*53
1485723745.11,52723,12.56,73780.0,-6.23,-37.93,-37.99,0,*5C
1485723746.39,52724,12.56,73778.3,-6.23,-38.23,-38.11,0,*50
1485723747.68,52725,12.56,73776.5,-6.23,-37.93,-37.93,0,*50
1485723748.91,52726,12.56,73776.5,-6.21,-38.17,-37.99,0,*58
1485723750.17,52727,12.56,73778.5,-6.23,-38.05,-38.11,0,*57
1485723751.43,52728,12.56,73778.3,-6.23,-37.87,-37.93,0,*58
1485723752.69,52729,12.56,73776.0,-6.23,-37.75,-37.93,0,*54
1485723753.93,52730,12.56,73776.0,-6.23,-37.87,-37.75,0,*59
1485723755.19,52731,12.56,73774.8,-6.23,-37.69,-37.75,0,*58
1485723756.43,52732,12.56,73776.8,-6.21,-37.69,-37.87,0,*54
1485723757.66,52733,12.56,73772.0,-6.21,-37.99,-38.05,0,*5F
1485723758.89,52734,12.56,73774.5,-6.23,-38.05,-38.05,0,*50
1485723760.15,52735,12.56,73772.5,-6.23,-37.39,-37.57,0,*59
1485723761.39,52736,12.56,73774.5,-6.23,-37.57,-37.57,0,*52
1485723762.63,52737,12.56,73778.5,-6.23,-37.87,-37.87,0,*53
1485723763.92,52738,12.56,73776.3,-6.23,-37.39,-37.51,0,*52
1485723765.18,52739,12.56,73776.5,-6.23,-37.87,-37.93,0,*58
1485723766.39,52740,12.56,73778.3,-6.21,-37.87,-38.05,0,*54
1485723767.65,52741,12.56,73774.5,-6.23,-38.05,-38.11,0,*57
1485723768.94,52742,12.56,73772.8,-6.23,-38.23,-38.29,0,*5B
1485723770.2,52743,12.56,73778.5,-6.23,-38.05,-38.23,0,*54
1485723771.46,52744,12.56,73776.8,-6.23,-37.87,-37.93,0,*52
1485723772.72,52745,12.56,73776.8,-6.23,-37.69,-37.57,0,*5B
1485723774.01,52746,12.56,73778.8,-6.23,-37.39,-37.51,0,*5B
1485723775.27,52747,12.56,73778.3,-6.23,-37.69,-37.75,0,*59
1485723776.51,52748,12.56,73778.0,-6.23,-37.75,-37.75,0,*5B
1485723777.77,52749,12.56,73774.8,-6.23,-37.69,-37.75,0,*57
1485723779.01,52750,12.56,73774.8,-6.23,-37.75,-37.87,0,*5F
1485723780.25,52751,12.56,73778.0,-6.23,-37.75,-37.87,0,*5E
1485723781.53,52752,12.56,73776.8,-6.23,-37.93,-37.93,0,*50
1485723782.76,52753,12.56,73776.0,-6.23,-38.05,-38.05,0,*51
1485723784.02,52754,12.56,73778.8,-6.23,-38.05,-37.93,0,*56
1485723785.28,52755,12.56,73778.0,-6.25,-37.93,-38.11,0,*54
1485723786.51,52756,12.56,73776.8,-6.25,-37.93,-38.05,0,*52
1485723787.75,52757,12.56,73776.3,-6.23,-37.75,-37.87,0,*58
1485723788.97,52758,12.56,73778.0,-6.25,-37.87,-37.87,0,*5C
1485723790.21,52759,12.56,73778.8,-6.25,-37.69,-37.75,0,*50
1485723791.45,52760,12.56,73776.0,-6.25,-37.87,-37.93,0,*52
1485723792.69,52761,12.56,73774.0,-6.25,-37.69,-37.87,0,*56
1485723793.9,52762,12.56,73774.5,-6.25,-37.75,-37.87,0,*58
1485723795.12,52763,12.56,73776.8,-6.25,-37.75,-37.87,0,*59
1485723796.35,52764,12.56,73774.3,-6.25,-37.57,-37.69,0,*5E
1485723797.59,52765,12.56,73776.0,-6.25,-37.69,-37.75,0,*5F
1485723798.8,52766,12.56,73772.3,-6.25,-37.75,-37.87,0,*5C
1485723800.01,52767,12.56,73772.0,-6.25,-37.75,-37.87,0,*5D
1485723801.25,52768,12.56,73776.3,-6.23,-37.87,-38.05,0,*5C
1485723802.51,52769,12.56,73776.0,-6.23,-37.69,-37.75,0,*55
1485723803.75,52770,12.56,73778.5,-6.23,-37.75,-37.75,0,*50
1485723804.96,52771,12.56,73776.5,-6.25,-37.57,-37.75,0,*57
1485723806.17,52772,12.56,73776.5,-6.25,-37.87,-38.05,0,*51
1485723807.41,52773,12.56,73778.8,-6.25,-38.05,-38.29,0,*5B
1485723808.63,52774,12.56,73772.3,-6.25,-37.87,-37.87,0,*52
1485723809.9,52775,12.56,73776.0,-6.29,-38.11,-38.11,0,*5F
1485723811.14,52776,12.56,73772.8,-6.25,-37.69,-37.75,0,*5D
1485723812.35,52777,12.56,73774.8,-6.25,-37.75,-37.87,0,*5C
1485723813.63,52778,12.56,73772.3,-6.29,-37.63,-37.81,0,*5E
1485723814.89,52779,12.56,73774.8,-6.29,-37.75,-37.81,0,*58
1485723816.1,52780,12.56,73778.0,-6.25,-37.75,-37.87,0,*54
1485723817.38,52781,12.56,73776.0,-6.29,-37.93,-37.93,0,*54
1485723818.6,52782,12.56,73776.5,-6.25,-37.87,-37.87,0,*5B
1485723819.88,52783,12.56,73776.0,-6.29,-37.93,-37.99,0,*5C
1485723821.14,52784,12.56,73776.0,-6.29,-37.75,-37.81,0,*5A
1485723822.38,52785,12.56,73774.5,-6.25,-37.69,-37.87,0,*5C
1485723823.59,52786,12.56,73778.3,-6.25,-37.75,-37.87,0,*52
1485723824.8,52787,12.56,73776.0,-6.25,-37.75,-38.05,0,*56
1485723826.09,52788,12.56,73778.3,-6.29,-37.81,-37.99,0,*54
1485723827.36,52789,12.56,73778.8,-6.29,-37.93,-37.93,0,*5C
1485723828.64,52790,12.56,73776.0,-6.29,-37.93,-37.93,0,*54
1485723829.93,52791,12.56,73776.5,-6.29,-37.81,-37.81,0,*55
1485723831.22,52792,12.56,73778.5,-6.29,-37.81,-37.81,0,*56
1485723832.47,52793,12.56,73776.0,-6.29,-37.75,-37.81,0,*5C
1485723833.71,52794,12.56,73774.3,-6.25,-37.69,-37.75,0,*51
1485723834.96,52795,12.56,73778.8,-6.29,-37.57,-37.69,0,*5C
1485723836.18,52796,12.56,73776.8,-6.29,-37.75,-37.75,0,*52
1485723837.44,52797,12.56,73776.5,-6.29,-37.75,-37.81,0,*58
1485723838.65,52798,12.56,73776.5,-6.25,-37.87,-38.05,0,*55
1485723839.86,52799,12.56,73778.0,-6.25,-37.75,-37.75,0,*51
1485723841.12,52800,12.56,73776.0,-6.29,-37.75,-37.63,0,*55
1485723842.37,52801,12.56,73782.0,-6.29,-37.75,-37.81,0,*58
1485723843.66,52802,12.56,73780.0,-6.29,-37.81,-37.81,0,*50
1485723844.94,52803,12.56,73778.3,-6.29,-37.63,-37.63,0,*51
1485723846.16,52804,12.56,73774.8,-6.25,-37.75,-37.87,0,*57
1485723847.44,52805,12.56,73778.3,-6.29,-37.81,-37.93,0,*54
1485723848.72,52806,12.56,73778.5,-6.29,-37.93,-38.11,0,*51
1485723849.95,52807,12.56,73774.3,-6.25,-37.75,-37.81,0,*52
1485723851.22,52808,12.56,73776.5,-6.25,-37.93,-37.93,0,*56
1485723852.49,52809,12.56,73776.5,-6.29,-37.99,-37.93,0,*51
1485723853.73,52810,12.56,73776.8,-6.25,-37.87,-38.11,0,*5F
1485723855.0,52811,12.56,73776.0,-6.29,-38.11,-38.11,0,*52
1485723856.28,52812,12.56,73778.5,-6.29,-37.93,-37.93,0,*51
1485723857.57,52813,12.56,73776.5,-6.29,-37.81,-37.93,0,*53
1485723858.81,52814,12.56,73776.3,-6.25,-37.87,-37.93,0,*5E
1485723860.09,52815,12.56,73778.5,-6.29,-37.99,-37.99,0,*56
1485723861.38,52816,12.56,73776.3,-6.29,-37.81,-37.99,0,*5C
1485723862.65,52817,12.56,73774.0,-6.29,-37.99,-38.11,0,*5B
1485723863.91,52818,12.56,73776.0,-6.29,-37.63,-37.75,0,*5C
1485723865.14,52819,12.56,73776.5,-6.31,-37.57,-37.63,0,*54
1485723866.43,52820,12.56,73776.5,-6.33,-37.81,-37.81,0,*5B
1485723867.69,52821,12.56,73776.5,-6.31,-37.81,-37.93,0,*5B
1485723868.98,52822,12.56,73778.0,-6.33,-37.99,-37.99,0,*59
1485723870.24,52823,12.56,73776.3,-6.31,-37.81,-37.93,0,*59
1485723871.47,52824,12.56,73776.0,-6.31,-37.45,-37.63,0,*59
1485723872.68,52825,12.56,73778.3,-6.31,-37.45,-37.57,0,*5F
1485723873.88,52826,12.56,73776.5,-6.31,-37.45,-37.57,0,*5C
1485723875.13,52827,12.56,73776.5,-6.31,-37.93,-37.93,0,*5E
1485723876.39,52828,12.56,73774.5,-6.31,-38.11,-37.99,0,*5E
1485723877.64,52829,12.56,73780.3,-6.33,-37.99,-38.05,0,*58
1485723878.87,52830,12.56,73778.5,-6.31,-37.75,-37.81,0,*53
1485723880.15,52831,12.56,73778.0,-6.33,-37.63,-37.81,0,*57
1485723881.41,52832,12.56,73776.5,-6.33,-37.99,-38.05,0,*52
1485723882.64,52833,12.56,73776.3,-6.31,-37.93,-38.17,0,*58
1485723883.92,52834,12.56,73782.3,-6.33,-37.63,-37.81,0,*52
1485723885.15,52835,12.56,73778.5,-6.31,-37.45,-37.63,0,*59
1485723886.41,52836,12.56,73780.5,-6.33,-37.69,-37.87,0,*5C
1485723887.68,52837,12.56,73776.8,-6.31,-37.81,-37.81,0,*5F
1485723888.94,52838,12.56,73778.0,-6.33,-37.87,-37.99,0,*5D
1485723890.23,52839,12.56,73776.0,-6.33,-37.51,-37.81,0,*5E
1485723891.48,52840,12.56,73780.5,-6.31,-37.93,-37.81,0,*5C
1485723892.74,52841,12.56,73774.0,-6.33,-37.99,-38.05,0,*56
1485723893.96,52842,12.56,73780.0,-6.33,-38.17,-38.05,0,*5C
1485723895.23,52843,12.56,73778.8,-6.33,-37.87,-37.99,0,*51
1485723896.51,52844,12.56,73778.3,-6.33,-37.99,-37.99,0,*59
1485723897.74,52845,12.56,73782.3,-6.31,-37.63,-37.75,0,*5D
1485723899.02,52846,12.56,73780.3,-6.33,-37.51,-37.69,0,*50
1485723900.31,52847,12.56,73776.5,-6.33,-37.99,-37.99,0,*5A
1485723901.57,52848,12.56,73780.0,-6.31,-37.81,-37.99,0,*5E
1485723902.84,52849,12.56,73774.8,-6.33,-37.87,-37.99,0,*5B
1485723904.09,52850,12.56,73776.5,-6.33,-37.99,-38.17,0,*55
1485723905.32,52851,12.56,73776.8,-6.33,-38.05,-38.17,0,*5E
1485723906.58,52852,12.56,73778.8,-6.33,-38.17,-38.23,0,*59
1485723907.81,52853,12.56,73780.0,-6.33,-37.87,-38.05,0,*5A
1485723909.07,52854,12.56,73776.0,-6.33,-38.17,-38.23,0,*5F
1485723910.3,52855,12.56,73780.0,-6.33,-38.05,-38.17,0,*5A
1485723911.53,52856,12.56,73776.5,-6.33,-38.05,-38.05,0,*5A
1485723912.76,52857,12.56,73778.3,-6.35,-37.81,-38.05,0,*5E
1485723913.97,52858,12.56,73782.8,-6.35,-38.05,-38.17,0,*51
1485723915.18,52859,12.56,73776.3,-6.35,-38.05,-38.17,0,*50
1485723916.44,52860,12.56,73778.0,-6.35,-37.81,-37.99,0,*50
1485723917.68,52861,12.56,73776.3,-6.37,-37.87,-37.87,0,*5A
1485723918.93,52862,12.56,73776.0,-6.35,-37.81,-37.87,0,*5D
1485723920.16,52863,12.56,73774.0,-6.35,-37.99,-38.17,0,*53
1485723921.39,52864,12.56,73780.8,-6.35,-37.99,-38.17,0,*54
1485723922.67,52865,12.56,73778.0,-6.37,-38.23,-38.49,0,*52
1485723923.95,52866,12.56,73782.8,-6.37,-38.11,-38.23,0,*5C
1485723925.22,52867,12.56,73782.0,-6.35,-37.81,-37.81,0,*5E
1485723926.48,52868,12.56,73776.0,-6.35,-37.39,-37.51,0,*5F
1485723927.76,52869,12.56,73776.3,-6.37,-37.51,-37.51,0,*52
1485723929.01,52870,12.56,73772.3,-6.35,-37.69,-37.69,0,*58
1485723930.27,52871,12.56,73778.5,-6.37,-37.87,-37.93,0,*5E
1485723931.53,52872,12.56,73778.3,-6.37,-37.93,-37.87,0,*5D
1485723932.76,52873,12.56,73778.0,-6.37,-37.45,-37.57,0,*5A
1485723933.99,52874,12.56,73776.3,-6.35,-37.45,-37.63,0,*58
1485723935.24,52875,12.56,73774.8,-6.37,-37.75,-37.93,0,*57
1485723936.52,52876,12.56,73776.3,-6.37,-37.93,-37.93,0,*5C
1485723937.74,52877,12.56,73778.0,-6.35,-37.87,-37.87,0,*5F
1485723939.0,52878,12.56,73776.5,-6.35,-37.69,-37.81,0,*56
1485723940.26,52879,12.56,73778.0,-6.35,-37.69,-37.81,0,*57
1485723941.52,52880,12.56,73780.3,-6.35,-37.39,-37.63,0,*58
1485723942.78,52881,12.56,73778.3,-6.37,-37.27,-37.51,0,*55
1485723944.01,52882,12.56,73778.0,-6.35,-37.45,-37.51,0,*50
1485723945.28,52883,12.56,73778.3,-6.35,-37.81,-37.81,0,*54
1485723946.51,52884,12.56,73776.5,-6.33,-37.87,-38.05,0,*50
1485723947.75,52885,12.56,73778.3,-6.35,-38.17,-38.23,0,*55
1485723948.99,52886,12.56,73778.0,-6.35,-37.87,-37.99,0,*5E
1485723950.22,52887,12.56,73780.8,-6.37,-37.57,-37.87,0,*5F
1485723951.47,52888,12.56,73776.5,-6.37,-37.75,-37.93,0,*55
1485723952.71,52889,12.56,73776.8,-6.35,-37.69,-37.87,0,*5E
1485723953.98,52890,12.56,73774.5,-6.35,-37.81,-37.99,0,*5F
1485723955.21,52891,12.56,73776.0,-6.35,-37.45,-37.51,0,*52
1485723956.42,52892,12.56,73778.5,-6.35,-37.57,-37.75,0,*54
1485723957.67,52893,12.56,73778.0,-6.35,-37.63,-37.69,0,*5F
1485723958.92,52894,12.56,73776.3,-6.37,-37.57,-37.69,0,*5D
1485723960.18,52895,12.56,73774.0,-6.37,-37.69,-37.75,0,*5C
1485723961.43,52896,12.56,73776.8,-6.37,-37.87,-37.93,0,*57
1485723962.69,52897,12.56,73776.3,-6.35,-37.51,-37.69,0,*5A
1485723963.94,52898,12.56,73776.0,-6.37,-37.69,-37.75,0,*51
1485723965.17,52899,12.56,73776.3,-6.37,-37.75,-37.87,0,*50
1485723966.4,52900,12.56,73776.3,-6.37,-37.75,-37.87,0,*51
1485723967.66,52901,12.56,73778.5,-6.35,-37.51,-37.69,0,*54
1485723968.91,52902,12.56,73778.5,-6.37,-37.69,-37.75,0,*53
1485723970.19,52903,12.56,73776.8,-6.37,-37.69,-37.69,0,*5F
1485723971.44,52904,12.56,73776.0,-6.35,-37.63,-37.69,0,*50
1485723972.68,52905,12.56,73776.3,-6.35,-37.45,-37.63,0,*5F
1485723973.9,52906,12.56,73776.8,-6.35,-37.45,-37.69,0,*56
1485723975.16,52907,12.56,73780.0,-6.37,-37.69,-37.75,0,*56
1485723976.38,52908,12.56,73780.8,-6.37,-37.57,-37.75,0,*54
1485723977.62,52909,12.56,73780.8,-6.35,-38.05,-37.99,0,*5D
1485723978.88,52910,12.56,73780.0,-6.37,-37.87,-37.93,0,*58
1485723980.11,52911,12.56,73778.3,-6.35,-37.45,-37.51,0,*5B
1485723981.35,52912,12.56,73776.8,-6.35,-37.81,-37.87,0,*5B
1485723982.63,52913,12.56,73778.3,-6.37,-38.23,-38.11,0,*5F
1485723983.87,52914,12.56,73778.3,-6.35,-37.69,-37.87,0,*5B
1485723985.14,52915,12.56,73774.0,-6.37,-38.11,-38.11,0,*58
1485723986.36,52916,12.56,73776.8,-6.37,-38.05,-38.05,0,*5B
1485723987.61,52917,12.56,73776.8,-6.37,-37.75,-37.93,0,*52
1485723988.86,52918,12.56,73772.5,-6.37,-37.75,-37.93,0,*5D
1485723990.12,52919,12.56,73774.3,-6.37,-37.69,-37.87,0,*54
1485723991.37,52920,12.56,73772.8,-6.35,-37.81,-37.87,0,*5A
1485723992.6,52921,12.56,73778.0,-6.37,-37.75,-37.87,0,*52
1485723993.85,52922,12.56,73776.3,-6.37,-37.69,-37.75,0,*51
1485723995.11,52923,12.56,73772.0,-6.37,-37.87,-37.93,0,*58
1485723996.37,52924,12.56,73778.3,-6.37,-37.69,-37.87,0,*5A
1485723997.62,52925,12.56,73776.5,-6.37,-37.87,-37.93,0,*5E
1485723998.87,52926,12.56,73776.8,-6.37,-38.05,-38.11,0,*5D
1485724000.11,52927,12.56,73778.8,-6.37,-37.87,-37.87,0,*59
1485724001.37,52928,12.56,73776.5,-6.37,-37.87,-37.93,0,*53
1485724002.61,52929,12.56,73778.0,-6.37,-38.11,-38.05,0,*52
1485724003.86,52930,12.56,73776.5,-6.37,-37.93,-38.05,0,*5F
1485724005.12,52931,12.56,73778.5,-6.37,-37.87,-37.93,0,*5B
1485724006.37,52932,12.56,73778.3,-6.37,-37.93,-38.05,0,*5D
1485724007.6,52933,12.56,73776.5,-6.37,-37.75,-37.87,0,*51
1485724008.87,52934,12.56,73774.0,-6.39,-38.29,-38.29,0,*55
1485724010.09,52935,12.56,73778.3,-6.39,-38.11,-38.17,0,*52
1485724011.37,52936,12.56,73778.0,-6.41,-37.93,-37.93,0,*58
1485724012.67,52937,12.56,73776.5,-6.41,-37.81,-37.81,0,*59
1485724013.92,52938,12.56,73776.8,-6.41,-37.63,-37.75,0,*51
1485724015.2,52939,12.56,73778.5,-6.41,-37.93,-37.93,0,*57
1485724016.46,52940,12.56,73776.0,-6.39,-37.63,-37.93,0,*59
1485724017.72,52941,12.56,73774.5,-6.39,-37.81,-37.93,0,*54
1485724018.99,52942,12.56,73776.3,-6.39,-37.81,-37.93,0,*57
1485724020.24,52943,12.56,73778.0,-6.39,-38.11,-38.11,0,*55
1485724021.49,52944,12.56,73776.3,-6.39,-38.11,-38.11,0,*52
1485724022.7,52945,12.5,73772.5,-6.39,-38.17,-38.35,0,*53
1485724023.97,52946,12.56,73778.0,-6.39,-37.93,-37.99,0,*5A
1485724025.22,52947,12.56,73776.8,-6.41,-37.63,-37.75,0,*59
1485724026.49,52948,12.56,73776.3,-6.39,-37.51,-37.63,0,*5F
1485724027.75,52949,12.56,73772.8,-6.39,-37.63,-37.81,0,*53
1485724029.01,52950,12.56,73776.0,-6.39,-37.93,-37.99,0,*5D
1485724030.27,52951,12.56,73776.3,-6.39,-37.81,-37.93,0,*55
1485724031.48,52952,12.56,73772.8,-6.39,-37.57,-37.75,0,*55
1485724032.77,52953,12.56,73776.3,-6.41,-37.81,-37.81,0,*5B
1485724034.05,52954,12.56,73776.0,-6.41,-37.63,-37.81,0,*50
1485724035.34,52955,12.5,73772.0,-6.41,-37.93,-37.93,0,*5D
1485724036.61,52956,12.56,73776.3,-6.41,-37.99,-38.11,0,*51
1485724037.87,52957,12.56,73776.8,-6.41,-38.11,-38.17,0,*59
1485724039.15,52958,12.56,73778.5,-6.41,-37.93,-38.11,0,*55
1485724040.42,52959,12.56,73776.0,-6.41,-38.11,-38.11,0,*51
1485724041.68,52960,12.56,73776.5,-6.39,-37.99,-38.11,0,*5B
1485724042.97,52961,12.56,73776.5,-6.41,-37.81,-37.99,0,*53
1485724044.26,52962,12.56,73774.0,-6.41,-37.63,-37.63,0,*59
1485724045.54,52963,12.56,73776.8,-6.41,-37.99,-38.11,0,*57
1485724046.82,52964,12.56,73780.3,-6.41,-37.99,-38.11,0,*50
1485724048.09,52965,12.56,73778.5,-6.41,-38.11,-38.11,0,*5E
1485724049.38,52966,12.56,73778.5,-6.41,-37.81,-37.93,0,*5E
1485724050.66,52967,12.56,73776.5,-6.41,-37.99,-38.11,0,*53
1485724051.95,52968,12.56,73778.0,-6.41,-37.81,-37.93,0,*50
1485724053.23,52969,12.56,73778.3,-6.41,-37.99,-37.99,0,*52
1485724054.52,52970,12.56,73778.5,-6.41,-37.99,-37.99,0,*5A
1485724055.79,52971,12.56,73776.5,-6.43,-37.81,-37.99,0,*50
1485724057.05,52972,12.56,73778.3,-6.43,-37.99,-37.99,0,*5A
1485724058.28,52973,12.56,73778.0,-6.43,-38.05,-38.23,0,*5F
1485724059.49,52974,12.56,73778.8,-6.43,-37.87,-37.87,0,*5C
1485724060.74,52975,12.56,73776.3,-6.43,-37.81,-37.87,0,*5B
1485724062.03,52976,12.56,73778.0,-6.45,-37.81,-37.81,0,*58
1485724063.23,52977,12.56,73776.8,-6.43,-37.87,-38.05,0,*5A
1485724064.47,52978,12.56,73776.3,-6.43,-37.87,-37.99,0,*5F
1485724065.76,52979,12.56,73778.8,-6.41,-37.63,-37.81,0,*5F
1485724067.0,52980,12.56,73776.8,-6.45,-37.87,-37.87,0,*51
1485724068.23,52981,12.56,73778.8,-6.43,-37.69,-37.87,0,*56
1485724069.44,52982,12.56,73776.5,-6.43,-37.87,-38.17,0,*53
1485724070.65,52983,12.56,73778.0,-6.43,-38.05,-38.17,0,*57
1485724071.9,52984,12.56,73776.3,-6.41,-37.75,-37.93,0,*59
1485724073.19,52985,12.56,73780.5,-6.45,-37.99,-37.99,0,*54
1485724074.39,52986,12.56,73778.3,-6.43,-38.05,-38.17,0,*52
1485724075.62,52987,12.56,73778.8,-6.45,-38.17,-38.05,0,*55
1485724076.85,52988,12.56,73776.5,-6.45,-38.05,-38.17,0,*5A
1485724078.08,52989,12.5,73776.0,-6.43,-37.87,-37.99,0,*51
1485724079.37,52990,12.56,73776.3,-6.45,-37.99,-37.99,0,*50
1485724080.64,52991,12.56,73782.8,-6.45,-37.87,-37.99,0,*5E
1485724081.84,52992,12.56,73778.5,-6.43,-37.87,-38.05,0,*51
1485724083.11,52993,12.56,73776.0,-6.45,-37.87,-37.81,0,*55
1485724084.37,52994,12.56,73778.3,-6.45,-37.45,-37.63,0,*50
1485724085.63,52995,12.56,73778.0,-6.45,-37.81,-37.87,0,*53
1485724086.87,52996,12.56,73776.3,-6.43,-37.81,-37.87,0,*56
1485724088.14,52997,12.56,73778.3,-6.45,-37.87,-37.99,0,*58
1485724089.39,52998,12.56,73778.0,-6.45,-37.99,-38.05,0,*52
1485724090.66,52999,12.56,73778.0,-6.45,-37.87,-37.99,0,*56
1485724091.9,53000,12.56,73780.0,-6.43,-37.87,-37.99,0,*58
1485724093.14,53001,12.5,73778.8,-6.43,-37.81,-37.87,0,*50
1485724094.42,53002,12.56,73780.3,-6.45,-37.69,-37.81,0,*55
1485724095.71,53003,12.56,73776.8,-6.45,-37.99,-37.99,0,*52
1485724096.94,53004,12.56,73780.3,-6.45,-38.05,-38.05,0,*55
1485724098.18,53005,12.56,73776.5,-6.45,-37.87,-37.87,0,*54
1485724099.4,53006,12.56,73778.8,-6.45,-38.17,-38.05,0,*54
1485724100.69,53007,12.5,73774.5,-6.45,-37.99,-37.99,0,*56